Temperature
0 1 1 1 1 1 1 1 1 2 1 2 1 0 1 1 1 1 1 1 1 1 1 1 1 1 1 2 2 2 2 2 3 3 3 3 4 4 4 4 4 5 5 5
0 0 0 1 1 1 1 1 0 1 1 1 1 1 0 0 1 0 1 1 1 1 1 1 1 1 1 1 1 2 2 2 2 2 3 3 3 3 3 4 4 4 4 4
0 -0 1 1 1 0 0 -1 -0 1 1 -0 -1 -1 -0 0 0 0 0 0 0 0 0 0 0 0 0 1 1 1 1 2 2 2 2 2 3 3 3 3 3 3 4 4
-1 0 2 3 -0 -0 -1 -1 -1 -1 -1 -1 -0 0 1 1 1 0 0 0 -0 -0 -0 -0 -0 -0 -0 0 1 1 1 1 1 2 2 2 2 2 2 2 2 3 3 3
-2 -1 0 1 -0 -1 -1 -1 -1 -1 -1 -1 -1 -0 0 1 1 0 0 -0 -0 -0 -1 -1 -1 -1 -0 -0 0 0 1 1 1 1 1 1 2 2 2 2 2 2 2 2
-2 -0 1 2 -0 -1 -1 -0 -1 -1 -2 -2 -2 -1 -0 1 0 -0 -0 -1 -1 -1 -1 -1 -1 -1 -1 -1 -0 0 0 0 0 0 1 1 1 1 1 1 1 1 2 2
-3 -2 -0 -0 -1 -1 1 1 0 -0 -1 -1 -2 -1 -0 -0 -0 -1 -1 -1 -1 -1 -1 -1 -1 -1 -1 -1 -1 -1 -0 -0 -0 0 0 0 0 1 1 1 1 1 1 1
-3 -2 0 -1 -2 -1 -0 0 0 0 0 -1 -1 -1 -1 -1 -1 -1 -1 -1 -1 -1 -1 -1 -1 -2 -2 -1 -1 -1 -1 -1 -0 -0 -0 -0 -0 -0 0 0 0 0 0 0
-2 -0 -1 -1 -0 1 1 0 0 0 0 -0 -1 -1 -1 -1 -1 -1 -2 -2 -2 -2 -2 -2 -2 -2 -2 -2 -2 -2 -1 -1 -1 -1 -1 -1 -1 -1 -0 -0 -0 -0 -0 -0
-4 -3 -2 -1 0 1 1 0 0 0 -0 -1 -1 -1 -2 -2 -2 -2 -2 -2 -2 -2 -2 -2 -2 -2 -2 -2 -2 -2 -2 -2 -2 -2 -1 -1 -1 -1 -1 -1 -1 -1 -1 -1
-4 -4 -2 -0 1 1 1 0 -0 -0 -1 -1 -1 -2 -2 -2 -2 -2 -2 -2 -2 -3 -2 -2 -2 -2 -2 -2 -3 -2 -2 -2 -2 -2 -2 -2 -2 -2 -2 -2 -2 -2 -2 -2
-2 -1 -2 0 2 1 0 0 -0 -1 -1 -1 -1 -2 -2 -2 -2 -2 -2 -2 -3 -3 -3 -2 -2 -2 -2 -2 -3 -3 -3 -3 -3 -3 -3 -3 -3 -2 -2 -2 -2 -2 -2 -2
1 1 1 1 1 1 0 -0 -1 -1 -1 -1 -2 -2 -2 -3 -3 -3 -3 -3 -3 -3 -3 -3 -3 -3 -3 -3 -3 -3 -3 -3 -3 -3 -3 -3 -3 -3 -3 -3 -3 -3 -3 -3
0 0 -0 0 0 0 -0 -1 -1 -1 -2 -2 -2 -2 -3 -3 -3 -3 -3 -3 -3 -3 -3 -3 -3 -3 -3 -3 -3 -3 -3 -3 -3 -3 -3 -3 -3 -3 -3 -3 -3 -3 -4 -4
0 -0 -0 -0 -0 -1 -1 -1 -2 -2 -2 -2 -3 -3 -3 -3 -3 -3 -3 -3 -3 -3 -3 -3 -3 -3 -3 -3 -3 -3 -4 -4 -4 -4 -4 -4 -4 -4 -4 -4 -4 -4 -4 -4
0 -0 -1 -1 -1 -1 -2 -2 -2 -2 -2 -3 -3 -3 -3 -3 -4 -4 -4 -4 -4 -4 -4 -4 -4 -4 -4 -4 -4 -4 -4 -4 -4 -4 -4 -4 -4 -4 -4 -5 -5 -5 -5 -5
-1 -1 -1 -1 -1 -2 -2 -2 -3 -3 -3 -3 -3 -4 -4 -4 -4 -4 -4 -4 -4 -4 -4 -4 -4 -4 -4 -4 -4 -4 -4 -4 -4 -4 -4 -5 -5 -5 -5 -5 -5 -5 -5 -5
-0 -1 -1 -1 -2 -2 -2 -3 -3 -3 -3 -3 -4 -4 -4 -4 -4 -4 -4 -4 -4 -4 -4 -4 -4 -4 -4 -4 -4 -4 -4 -4 -5 -5 -5 -5 -5 -5 -5 -5 -5 -5 -5 -6
-1 -1 -1 -2 -2 -2 -3 -3 -3 -3 -4 -4 -4 -4 -4 -4 -4 -5 -5 -5 -4 -4 -4 -4 -4 -4 -4 -4 -4 -5 -5 -5 -5 -5 -5 -5 -6 -6 -6 -6 -6 -6 -6 -6
-1 -1 -2 -2 -2 -3 -3 -3 -3 -4 -4 -4 -4 -4 -4 -5 -5 -5 -5 -5 -5 -5 -5 -5 -5 -5 -5 -5 -5 -5 -5 -5 -5 -5 -6 -6 -6 -6 -6 -6 -6 -6 -6 -6
-1 -2 -2 -2 -3 -3 -3 -3 -4 -4 -4 -4 -4 -5 -5 -5 -5 -5 -5 -5 -5 -5 -5 -5 -5 -5 -5 -5 -5 -5 -5 -5 -5 -6 -6 -6 -6 -6 -6 -6 -7 -7 -7 -7
-2 -2 -2 -2 -3 -3 -3 -4 -4 -4 -4 -4 -5 -5 -5 -5 -5 -5 -5 -5 -5 -5 -5 -5 -5 -5 -5 -5 -5 -5 -5 -6 -6 -6 -6 -6 -6 -7 -7 -7 -7 -7 -7 -7
-2 -2 -2 -3 -3 -3 -3 -4 -4 -4 -4 -5 -5 -5 -5 -5 -5 -5 -5 -5 -5 -5 -5 -5 -5 -5 -5 -6 -6 -6 -6 -6 -6 -6 -6 -7 -7 -7 -7 -7 -7 -7 -7 -7
-2 -2 -3 -3 -3 -4 -4 -4 -4 -4 -5 -5 -5 -5 -5 -5 -5 -5 -5 -5 -6 -6 -6 -6 -6 -6 -6 -6 -6 -6 -6 -6 -6 -6 -7 -7 -7 -7 -7 -7 -7 -7 -7 -7
-2 -3 -3 -3 -4 -4 -4 -4 -4 -5 -5 -5 -5 -5 -5 -5 -6 -6 -6 -6 -6 -6 -6 -6 -6 -6 -6 -6 -6 -6 -6 -7 -7 -7 -7 -7 -7 -8 -8 -8 -8 -8 -8 -8
-3 -3 -3 -3 -4 -4 -4 -5 -5 -5 -5 -5 -5 -5 -5 -6 -6 -6 -6 -6 -6 -6 -6 -6 -6 -6 -6 -6 -7 -7 -7 -7 -7 -7 -7 -7 -8 -8 -8 -8 -8 -8 -8 -8
-3 -3 -4 -4 -4 -4 -5 -5 -5 -5 -5 -5 -5 -5 -6 -6 -6 -6 -6 -6 -6 -6 -6 -6 -6 -7 -7 -7 -7 -7 -7 -7 -7 -7 -8 -8 -8 -8 -8 -8 -8 -8 -8 -8
Wind_Speed
3 3 2 5 7 6 8 7 8 8 8 11 7 6 6 6 6 6 6 6 6 7 7 7 7 8 8 8 7 7 6 5 5 5 5 5 4 5 5 5 5 4 4 4
3 2 3 6 8 9 9 8 9 9 12 8 5 3 4 5 5 6 7 7 7 8 7 7 8 8 9 8 8 7 6 5 5 5 4 4 4 4 4 4 4 3 2 3
2 4 4 7 8 9 5 5 6 9 8 4 4 6 6 6 6 6 7 7 8 7 8 8 8 8 8 8 7 6 5 5 4 4 4 4 4 3 3 3 3 1 1 2
0 2 5 6 1 5 5 5 7 6 6 5 6 7 6 5 5 6 7 7 7 7 7 8 7 8 7 7 6 5 5 5 4 4 4 4 3 3 2 2 2 1 0 0
2 2 8 6 2 4 5 5 6 7 7 5 5 6 5 4 4 6 6 6 6 7 7 7 7 7 7 6 5 5 5 5 5 4 3 3 3 3 2 2 1 1 0 0
3 3 6 5 1 3 3 4 4 5 6 3 2 4 6 4 5 6 6 5 5 6 6 6 7 6 6 6 5 5 5 5 5 3 3 3 3 2 2 1 0 0 1 1
4 5 8 5 2 3 3 6 2 4 4 3 4 6 6 6 6 5 5 6 5 6 6 6 6 5 6 6 6 6 5 5 4 3 2 2 1 1 1 0 1 1 1 1
5 5 9 3 6 6 6 1 1 3 4 5 6 6 6 6 6 6 6 6 6 5 6 6 5 5 6 7 7 6 5 4 3 3 2 1 1 1 1 1 2 2 2 2
9 8 3 5 6 4 2 3 3 3 4 4 5 6 6 6 6 6 6 6 5 5 6 6 5 4 6 7 6 6 5 4 4 3 2 1 1 1 1 1 1 1 2 2
5 8 6 7 6 5 4 5 4 4 4 3 5 7 7 7 6 6 6 6 5 5 6 6 6 5 5 6 5 4 4 4 3 3 3 3 2 1 1 1 1 1 2 1
6 7 6 6 8 8 6 4 4 4 4 5 5 6 6 7 7 6 6 5 4 5 6 6 6 6 5 4 4 4 4 3 3 2 2 3 3 2 2 1 1 1 1 1
8 7 6 6 5 5 5 6 6 5 5 5 5 6 6 6 6 6 6 5 5 5 6 6 6 6 5 4 3 2 3 2 2 2 2 2 2 3 4 3 4 4 4 3
7 4 5 6 4 4 5 6 5 5 6 6 5 5 6 6 5 5 5 5 5 6 6 5 5 5 5 4 3 2 2 2 1 1 1 1 1 2 2 4 5 6 6 5
6 3 4 5 5 4 4 4 3 4 4 5 5 5 5 5 5 5 6 6 6 5 5 4 4 5 5 3 2 2 2 2 1 1 1 1 1 1 2 2 2 3 4 5
7 7 7 4 3 3 2 2 3 4 4 4 4 4 4 5 6 6 6 5 4 4 4 4 4 5 4 3 2 2 1 1 1 1 1 1 1 2 2 2 2 2 2 3
4 4 4 4 5 5 3 3 5 6 5 5 5 5 5 5 5 5 4 3 3 4 4 4 5 5 3 2 1 1 1 1 1 1 1 1 2 2 1 1 2 1 1 1
3 4 5 5 6 6 6 6 6 6 5 5 6 5 4 4 4 5 4 4 4 4 4 4 5 4 2 1 0 1 1 1 1 1 1 1 1 1 1 1 1 1 1 1
8 7 6 6 6 6 6 6 5 5 5 5 4 3 3 4 5 5 5 4 3 3 4 4 3 2 2 1 0 0 0 0 0 0 0 1 1 1 1 1 1 1 1 1
6 6 6 6 6 5 5 5 5 5 4 3 3 4 4 4 4 4 3 3 3 4 5 4 4 2 2 1 1 0 0 1 1 1 0 0 1 1 1 1 1 1 1 1
5 4 4 4 4 4 4 3 3 3 3 3 3 3 4 4 3 3 2 3 3 3 4 3 2 1 1 1 0 0 1 1 1 1 1 0 0 0 1 1 1 1 1 1
5 4 4 3 3 3 3 3 3 3 3 3 3 4 4 4 2 2 2 3 4 3 2 2 1 1 1 0 0 1 1 1 1 1 1 1 0 0 0 0 1 0 0 0
4 4 4 3 3 3 3 3 3 3 3 3 3 3 3 3 2 2 3 4 3 3 1 1 1 1 1 1 1 1 1 1 1 1 0 1 1 1 1 0 0 0 0 0
4 4 4 4 4 3 2 2 3 3 4 4 4 4 4 3 2 2 3 3 2 2 1 1 2 1 1 2 1 1 1 1 1 0 0 0 0 0 0 0 0 0 0 0
3 3 3 2 2 2 3 3 3 3 3 3 4 4 3 3 3 3 3 3 2 2 1 1 1 1 2 1 1 1 1 1 0 0 0 0 0 0 0 0 0 0 0 0
3 3 3 3 3 4 4 2 2 2 2 2 3 3 3 3 3 2 2 2 2 1 1 1 1 1 1 1 1 1 1 0 0 0 0 0 0 0 0 0 0 0 1 1
3 3 3 4 4 3 3 2 2 2 2 2 2 2 2 2 2 2 1 1 1 1 0 0 0 0 0 1 1 1 1 1 1 0 0 0 0 0 0 1 1 1 1 1
2 2 2 2 2 3 3 3 3 3 3 3 3 2 2 2 1 1 1 1 1 1 0 0 0 1 1 0 0 0 0 0 0 0 0 0 0 1 1 1 1 1 1 1
Wind_Direction
266 283 238 240 236 212 210 209 218 244 251 271 269 269 280 292 301 308 311 314 313 310 310 313 317 318 314 313 312 309 302 289 284 283 282 279 279 278 276 278 284 268 247 233
299 299 261 266 250 229 232 231 238 261 271 272 281 282 284 287 293 299 300 303 306 309 312 313 313 313 313 313 312 310 305 293 295 293 293 292 286 283 279 284 293 275 242 231
275 314 330 276 239 210 206 208 198 229 250 292 298 287 279 279 283 284 290 296 301 302 303 304 305 306 305 303 305 304 301 298 299 301 303 301 296 289 289 294 292 280 259 239
279 20 251 251 181 179 194 235 221 240 267 276 277 286 272 256 256 276 287 293 296 299 302 305 308 311 312 311 309 305 306 304 305 310 306 305 302 296 296 294 282 272 268 274
148 253 280 287 226 173 188 264 227 229 258 281 310 318 293 250 252 266 275 282 289 295 299 304 308 314 318 317 315 311 310 307 304 302 301 303 300 304 312 299 296 339 354 113
152 206 248 259 198 176 120 286 244 207 240 271 2 316 292 310 299 290 293 297 300 305 307 307 311 320 324 322 320 310 310 304 300 297 295 291 292 308 315 293 278 94 73 83
190 229 263 252 192 132 166 252 255 205 224 212 216 240 280 307 306 300 297 298 304 307 306 305 314 325 322 317 312 309 311 308 312 310 296 292 323 338 348 66 93 115 103 78
170 210 253 187 144 183 219 251 225 229 224 228 250 274 290 298 301 305 306 304 306 307 305 310 317 323 319 312 312 320 323 322 326 329 332 2 27 16 47 81 92 96 95 69
197 217 254 184 206 227 215 243 245 237 246 241 266 279 288 291 293 296 298 299 299 298 303 310 312 312 305 307 319 327 328 329 333 337 350 30 51 51 53 78 97 93 96 88
248 260 254 245 248 253 238 239 248 248 254 246 261 275 284 288 291 294 296 296 299 301 302 305 308 307 298 307 321 328 329 332 347 6 21 32 32 44 65 83 95 96 95 94
249 267 285 262 237 243 250 250 257 261 253 245 252 270 276 283 286 287 290 292 292 290 289 294 304 306 307 316 330 338 343 352 3 14 38 40 36 37 46 35 72 96 114 121
230 224 214 249 241 228 230 243 245 255 272 265 248 261 272 277 279 281 286 291 294 294 294 298 304 306 312 323 331 341 342 346 355 11 31 50 59 48 47 52 48 60 70 74
231 235 230 257 260 232 233 245 245 242 249 264 264 258 264 273 278 280 284 289 287 287 289 296 304 307 313 320 327 330 335 345 358 9 26 42 64 79 61 47 51 60 63 71
234 235 260 252 253 254 249 254 249 258 255 253 260 265 266 274 283 283 282 282 284 288 293 300 305 306 311 319 328 330 340 352 6 15 25 35 53 67 77 76 58 49 53 67
235 224 235 256 267 268 260 256 262 269 272 274 267 263 264 269 275 278 282 289 294 296 301 306 305 305 317 322 329 335 348 349 353 24 46 62 67 71 77 81 80 67 50 47
244 239 237 245 252 256 254 253 257 265 268 271 271 270 268 267 274 282 287 286 287 290 294 297 295 303 314 318 324 330 332 344 13 47 65 68 78 87 95 104 105 101 87 63
207 242 243 253 253 250 245 246 248 258 264 264 265 272 279 284 289 291 289 279 268 272 280 282 290 307 312 307 277 298 334 338 16 49 57 67 88 105 122 129 133 127 118 123
222 231 232 236 244 248 253 249 248 252 256 261 267 271 271 271 274 282 288 295 298 302 301 293 298 310 310 314 293 291 76 67 65 82 82 76 93 120 126 131 135 128 91 101
229 236 241 241 238 235 239 245 246 246 249 248 249 257 261 262 266 278 288 295 299 301 307 308 316 328 316 310 353 118 120 116 103 72 91 144 80 79 101 114 116 119 117 111
237 236 237 243 239 230 236 241 238 242 242 230 237 255 268 269 269 271 268 264 265 277 290 300 297 296 295 301 14 137 151 154 148 125 105 112 112 102 107 109 109 109 105 116
241 237 233 237 246 245 235 224 220 234 239 225 228 244 257 268 264 251 250 274 288 298 301 312 322 305 294 328 125 98 111 122 137 157 170 176 170 170 166 146 145 158 154 143
231 226 230 229 229 248 246 226 220 226 232 234 239 244 256 269 270 261 245 251 276 301 313 295 289 307 2 82 96 102 106 108 104 107 137 166 180 198 215 203 200 213 185 170
235 227 225 224 223 230 241 232 223 221 225 229 232 236 243 248 243 241 270 274 274 283 290 271 292 320 92 102 105 116 114 108 114 123 133 146 166 177 182 201 212 197 178 179
230 223 222 217 195 205 233 241 231 230 231 236 234 230 228 241 257 245 250 272 283 277 266 284 316 85 111 108 115 109 105 113 130 134 110 92 86 128 173 193 221 237 216 205
222 217 207 194 206 225 232 228 219 227 230 247 255 248 233 221 229 250 253 253 259 249 270 304 23 99 114 124 134 142 164 205 181 135 117 116 105 306 280 264 255 270 259 238
220 218 219 219 217 216 206 199 213 224 219 237 256 250 243 235 229 235 238 243 245 225 208 246 256 176 133 130 148 162 183 249 291 301 239 223 223 255 277 274 262 252 251 253
218 215 215 231 228 211 205 205 212 221 217 217 235 240 226 217 211 216 219 219 214 203 187 181 194 178 153 143 144 170 223 233 240 262 262 257 259 253 255 260 263 262 261 255
Height
1505 1503 1502 1502 1501 1503 1503 1502 1501 1492 1491 1481 1480 1480 1478 1477 1475 1474 1472 1470 1468 1466 1463 1461 1458 1456 1453 1451 1449 1448 1446 1444 1443 1443 1444 1444 1443 1443 1443 1443 1443 1443 1442 1442
1504 1502 1502 1499 1496 1497 1497 1497 1496 1492 1487 1479 1479 1478 1477 1475 1474 1472 1470 1468 1466 1463 1460 1457 1454 1452 1449 1447 1445 1443 1442 1440 1440 1439 1439 1439 1439 1439 1439 1438 1438 1438 1438 1438
1505 1504 1499 1495 1488 1489 1490 1489 1489 1488 1482 1479 1478 1477 1475 1473 1472 1470 1468 1466 1464 1461 1458 1455 1451 1448 1445 1443 1441 1439 1438 1437 1436 1436 1435 1435 1435 1434 1434 1434 1434 1433 1434 1434
1509 1504 1499 1483 1483 1483 1485 1485 1484 1481 1479 1478 1476 1474 1472 1471 1469 1468 1466 1464 1461 1458 1455 1452 1448 1445 1442 1440 1437 1436 1435 1433 1433 1432 1431 1431 1430 1430 1430 1430 1430 1430 1430 1430
1510 1507 1495 1483 1482 1483 1484 1481 1477 1478 1476 1476 1474 1471 1468 1468 1467 1466 1464 1461 1458 1455 1452 1449 1445 1442 1439 1436 1434 1433 1432 1430 1429 1428 1427 1427 1426 1426 1426 1427 1427 1427 1427 1428
1510 1503 1492 1479 1479 1479 1482 1480 1473 1473 1473 1474 1474 1474 1468 1465 1464 1462 1460 1458 1456 1452 1450 1446 1443 1439 1436 1433 1432 1430 1429 1427 1426 1425 1424 1423 1423 1423 1423 1424 1424 1425 1425 1426
1508 1505 1489 1478 1477 1479 1483 1475 1470 1469 1470 1471 1471 1470 1467 1464 1462 1460 1458 1455 1453 1450 1447 1444 1440 1437 1434 1431 1429 1427 1426 1425 1424 1423 1422 1421 1420 1421 1421 1421 1422 1422 1423 1425
1505 1503 1486 1475 1476 1477 1472 1468 1468 1467 1468 1468 1467 1465 1464 1462 1460 1458 1455 1452 1450 1447 1444 1441 1438 1435 1432 1429 1427 1425 1423 1422 1421 1420 1419 1419 1419 1419 1419 1419 1420 1421 1421 1422
1486 1479 1471 1470 1468 1468 1468 1467 1466 1466 1465 1465 1463 1462 1460 1459 1457 1455 1452 1450 1447 1445 1442 1439 1436 1434 1431 1428 1426 1424 1422 1420 1418 1417 1417 1417 1417 1417 1417 1418 1419 1419 1419 1420
1481 1471 1467 1466 1465 1465 1465 1465 1464 1464 1463 1462 1461 1459 1458 1456 1454 1451 1449 1447 1445 1442 1439 1437 1434 1432 1430 1427 1425 1422 1420 1418 1416 1415 1415 1415 1416 1416 1417 1417 1418 1418 1419 1420
1475 1467 1464 1461 1461 1461 1461 1461 1461 1461 1460 1459 1458 1456 1455 1453 1451 1449 1446 1445 1442 1440 1437 1435 1433 1430 1428 1426 1423 1420 1418 1417 1416 1415 1414 1414 1415 1416 1416 1417 1418 1418 1419 1419
1464 1459 1460 1457 1457 1458 1458 1457 1457 1457 1456 1455 1455 1453 1452 1450 1448 1446 1444 1442 1440 1437 1435 1432 1430 1428 1426 1424 1422 1420 1418 1416 1415 1415 1414 1414 1415 1416 1417 1418 1418 1419 1419 1420
1455 1455 1455 1454 1454 1454 1454 1454 1453 1453 1452 1451 1451 1450 1448 1446 1445 1443 1441 1439 1437 1435 1433 1430 1428 1426 1424 1422 1420 1418 1417 1415 1415 1414 1414 1414 1415 1415 1415 1417 1418 1418 1418 1419
1452 1452 1451 1450 1451 1451 1450 1450 1449 1449 1448 1448 1447 1445 1444 1442 1441 1439 1437 1436 1434 1432 1430 1428 1426 1424 1423 1421 1419 1417 1416 1415 1414 1414 1414 1414 1414 1414 1415 1415 1416 1417 1419 1419
1448 1448 1448 1447 1447 1446 1446 1446 1445 1444 1444 1443 1442 1441 1440 1438 1437 1436 1434 1433 1431 1429 1428 1426 1424 1422 1421 1420 1418 1417 1416 1415 1414 1414 1414 1413 1414 1414 1415 1415 1416 1417 1418 1419
1443 1443 1443 1443 1442 1442 1442 1441 1441 1440 1440 1439 1438 1437 1436 1435 1433 1432 1431 1429 1428 1426 1425 1424 1422 1421 1420 1419 1417 1416 1415 1415 1414 1414 1413 1413 1413 1414 1414 1415 1416 1417 1417 1418
1439 1438 1438 1438 1437 1437 1437 1437 1437 1437 1436 1435 1434 1433 1432 1431 1430 1429 1428 1427 1425 1424 1423 1422 1421 1420 1419 1418 1417 1416 1415 1415 1414 1413 1413 1413 1413 1413 1414 1415 1415 1416 1417 1417
1435 1434 1434 1434 1433 1433 1433 1433 1433 1433 1433 1432 1431 1430 1429 1428 1427 1426 1425 1424 1423 1421 1421 1420 1419 1418 1417 1417 1416 1415 1415 1414 1414 1413 1413 1413 1413 1413 1414 1414 1415 1415 1416 1416
1430 1430 1430 1430 1430 1430 1429 1429 1429 1429 1429 1429 1428 1427 1426 1425 1424 1424 1423 1421 1420 1418 1418 1418 1418 1417 1416 1415 1415 1415 1414 1414 1413 1413 1413 1413 1413 1413 1413 1414 1414 1415 1415 1415
1426 1426 1426 1426 1426 1426 1426 1426 1426 1426 1426 1426 1425 1424 1423 1423 1422 1421 1420 1419 1418 1417 1417 1416 1415 1415 1414 1414 1414 1414 1413 1413 1413 1412 1412 1412 1412 1413 1413 1413 1414 1414 1414 1415
1422 1422 1422 1422 1422 1423 1423 1423 1423 1423 1423 1423 1422 1421 1421 1420 1419 1419 1418 1417 1416 1416 1415 1415 1414 1413 1413 1413 1413 1413 1413 1412 1412 1412 1412 1412 1412 1412 1412 1413 1413 1413 1413 1414
1418 1418 1419 1419 1419 1419 1420 1420 1420 1420 1420 1420 1419 1419 1418 1417 1417 1416 1416 1415 1414 1414 1414 1413 1413 1412 1412 1412 1412 1412 1412 1412 1411 1411 1411 1411 1411 1411 1412 1412 1412 1412 1412 1413
1415 1415 1415 1416 1416 1416 1416 1417 1417 1417 1417 1417 1416 1416 1415 1415 1414 1414 1413 1413 1413 1413 1412 1412 1412 1412 1412 1411 1411 1411 1411 1411 1411 1411 1411 1411 1411 1411 1411 1411 1411 1411 1411 1412
1412 1412 1413 1413 1413 1413 1413 1413 1413 1414 1414 1414 1414 1414 1413 1413 1412 1412 1412 1412 1412 1411 1411 1411 1410 1410 1410 1410 1410 1410 1410 1410 1410 1410 1410 1410 1410 1410 1410 1410 1410 1410 1410 1410
1409 1409 1410 1410 1410 1410 1410 1410 1410 1411 1411 1411 1411 1411 1411 1411 1411 1410 1410 1410 1410 1410 1409 1409 1409 1409 1409 1409 1409 1409 1409 1409 1410 1409 1409 1409 1409 1409 1409 1409 1409 1409 1409 1409
1406 1406 1406 1407 1407 1407 1407 1407 1407 1408 1408 1408 1408 1408 1408 1409 1409 1408 1408 1408 1408 1408 1408 1408 1408 1408 1408 1408 1408 1408 1408 1409 1409 1409 1408 1408 1408 1408 1408 1408 1408 1408 1408 1408
1403 1403 1403 1403 1404 1404 1404 1404 1404 1405 1405 1405 1406 1406 1406 1406 1406 1406 1406 1406 1406 1406 1406 1406 1407 1407 1407 1407 1407 1407 1408 1408 1407 1407 1407 1407 1407 1406 1406 1406 1406 1406 1406 1406